Location: Ash Swamp
(41.5170°N, 74.6157°W)
Time: 02:41:30
(UTC+00:00)

Cosmos 2369 Rocket - Pass Details

Date: 14 July 2020
Orbit: 829 x 852 km, 71.0° (Epoch: 14 August)

Event Time Altitude Azimuth Distance (km) Brightness Sun altitude
Rises 02:41:06 0° 346° (NNW) 3,382 6.6 -18.7°
Reaches altitude 10° 02:44:03 10° 0° (N) 2,447 5.4 -19.0°
Maximum altitude 02:48:29 24° 53° (NE) 1,687 3.8 -19.5°
Enters shadow 02:51:12 17° 91° (E) 2,006 3.8 -19.7°
